Time,TemperatureF,DewpointF,PressureIn,WindDirection,WindDirectionDegrees,WindSpeedMPH,WindSpeedGustMPH,Humidity,HourlyPrecipIn,Conditions,Clouds,dailyrainin,SoftwareType,DateUTC
2013-07-04 11:48:00,91.2,61.9,29.10,SE,135,0.0,0.0,38,0.00,,,0.00,WUHU216HW,2013-07-04 16:48:00,
2013-07-04 11:53:00,92.8,62.5,29.09,SE,135,0.0,0.0,37,0.00,,,0.00,WUHU216HW,2013-07-04 16:53:00,
2013-07-04 11:58:00,94.2,62.2,29.09,SE,135,0.0,0.0,35,0.00,,,0.00,WUHU216HW,2013-07-04 16:58:00,
2013-07-04 12:03:00,95.3,62.3,29.09,SSE,158,0.0,0.0,34,0.00,,,0.00,WUHU216HW,2013-07-04 17:03:00,
2013-07-04 12:08:00,96.4,63.2,29.09,SE,135,0.0,0.0,34,0.00,,,0.00,WUHU216HW,2013-07-04 17:08:00,
2013-07-04 12:13:00,96.6,62.5,29.09,SSE,158,4.6,4.6,33,0.00,,,0.00,WUHU216HW,2013-07-04 17:13:00,
2013-07-04 12:18:00,96.4,62.4,29.09,SSE,158,0.0,4.6,33,0.00,,,0.00,WUHU216HW,2013-07-04 17:18:00,
2013-07-04 12:23:00,96.6,62.5,29.09,SSE,158,0.0,4.6,33,0.00,,,0.00,WUHU216HW,2013-07-04 17:23:00,
2013-07-04 12:28:00,96.6,60.9,29.09,ESE,113,0.0,0.0,31,0.00,,,0.00,WUHU216HW,2013-07-04 17:28:00,
2013-07-04 12:33:00,95.5,61.6,29.09,ESE,113,3.1,3.8,33,0.00,,,0.00,WUHU216HW,2013-07-04 17:33:00,
2013-07-04 12:38:00,95.5,60.8,29.09,ESE,113,0.0,3.8,32,0.00,,,0.00,WUHU216HW,2013-07-04 17:38:00,
2013-07-04 12:43:00,94.8,60.2,29.09,SSE,158,0.0,3.1,32,0.00,,,0.00,WUHU216HW,2013-07-04 17:43:00,
2013-07-04 12:48:00,94.8,61.0,29.09,SSE,158,0.0,1.5,33,0.00,,,0.00,WUHU216HW,2013-07-04 17:48:00,
2013-07-04 12:53:00,94.8,61.0,29.09,SSE,158,0.0,4.0,33,0.00,,,0.00,WUHU216HW,2013-07-04 17:53:00,
2013-07-04 12:58:00,94.1,60.4,29.09,SE,135,0.0,4.0,33,0.00,,,0.00,WUHU216HW,2013-07-04 17:58:00,
2013-07-04 13:03:00,93.5,60.7,29.09,SE,135,0.0,0.0,34,0.00,,,0.00,WUHU216HW,2013-07-04 18:03:00,
2013-07-04 13:08:00,93.0,59.4,29.08,SSE,158,0.0,0.0,33,0.00,,,0.00,WUHU216HW,2013-07-04 18:08:00,
2013-07-04 13:13:00,93.0,60.2,29.08,SSE,158,0.0,0.0,34,0.00,,,0.00,WUHU216HW,2013-07-04 18:13:00,
2013-07-04 13:18:00,93.5,60.7,29.08,SSE,158,0.0,0.0,34,0.00,,,0.00,WUHU216HW,2013-07-04 18:18:00,
2013-07-04 13:23:00,92.8,60.9,29.08,SSE,158,0.0,0.0,35,0.00,,,0.00,WUHU216HW,2013-07-04 18:23:00,
2013-07-04 13:28:00,93.2,60.4,29.08,SE,135,0.0,0.0,34,0.00,,,0.00,WUHU216HW,2013-07-04 18:28:00,
2013-07-04 13:33:00,93.2,60.4,29.08,ESE,113,0.0,0.0,34,0.00,,,0.00,WUHU216HW,2013-07-04 18:33:00,
2013-07-04 13:38:00,92.3,59.6,29.07,East,90,3.1,3.1,34,0.00,,,0.00,WUHU216HW,2013-07-04 18:38:00,
2013-07-04 13:44:00,91.9,59.3,29.07,East,90,0.0,3.1,34,0.00,,,0.00,WUHU216HW,2013-07-04 18:44:00,
2013-07-04 13:49:00,91.7,60.0,29.07,East,90,0.0,3.1,35,0.00,,,0.00,WUHU216HW,2013-07-04 18:49:00,
2013-07-04 13:54:00,92.4,59.8,29.07,East,90,0.0,0.0,34,0.00,,,0.00,WUHU216HW,2013-07-04 18:54:00,
2013-07-04 13:59:00,92.4,59.8,29.07,East,90,0.0,0.0,34,0.00,,,0.00,WUHU216HW,2013-07-04 18:59:00,
2013-07-04 14:04:00,93.0,60.2,29.07,SE,135,0.0,0.0,34,0.00,,,0.00,WUHU216HW,2013-07-04 19:04:00,
2013-07-04 14:09:00,93.0,60.2,29.07,SE,135,0.0,0.0,34,0.00,,,0.00,WUHU216HW,2013-07-04 19:09:00,
2013-07-04 14:14:00,93.0,60.2,29.07,SE,135,0.0,0.0,34,0.00,,,0.00,WUHU216HW,2013-07-04 19:14:00,
2013-07-04 14:19:00,93.2,59.6,29.07,SE,135,0.0,0.0,33,0.00,,,0.00,WUHU216HW,2013-07-04 19:19:00,
2013-07-04 14:24:00,93.0,59.4,29.07,WSW,248,0.0,0.0,33,0.00,,,0.00,WUHU216HW,2013-07-04 19:24:00,
2013-07-04 14:29:00,93.0,59.4,29.07,WSW,248,0.0,0.0,33,0.00,,,0.00,WUHU216HW,2013-07-04 19:29:00,
2013-07-04 14:34:00,93.0,59.4,29.07,WSW,248,0.0,0.0,33,0.00,,,0.00,WUHU216HW,2013-07-04 19:34:00,
2013-07-04 14:39:00,92.4,59.0,29.06,WSW,248,0.0,0.0,33,0.00,,,0.00,WUHU216HW,2013-07-04 19:39:00,
2013-07-04 14:44:00,92.8,60.9,29.06,WSW,248,0.0,0.0,35,0.00,,,0.00,WUHU216HW,2013-07-04 19:44:00,
2013-07-04 14:49:00,93.0,60.2,29.06,WSW,248,2.9,2.9,34,0.00,,,0.00,WUHU216HW,2013-07-04 19:49:00,
2013-07-04 14:54:00,93.0,60.2,29.06,WSW,248,2.9,2.9,34,0.00,,,0.00,WUHU216HW,2013-07-04 19:54:00,
2013-07-04 14:59:00,93.0,60.2,29.06,WSW,248,2.9,2.9,34,0.00,,,0.00,WUHU216HW,2013-07-04 19:59:00,
2013-07-04 15:13:00,93.0,59.4,29.06,WSW,248,0.0,0.0,33,0.00,,,0.00,WUHU216HW,2013-07-04 20:13:00,
2013-07-04 15:14:00,93.0,59.4,29.06,WSW,248,0.0,0.0,33,0.00,,,0.00,WUHU216HW,2013-07-04 20:14:00,
2013-07-04 15:19:00,93.0,60.1,29.06,WSW,248,0.0,0.0,35,0.00,,,0.00,WUHU216HW,2013-07-04 20:19:00,
2013-07-04 15:24:00,91.9,60.1,29.06,WSW,248,0.0,0.0,35,0.00,,,0.00,WUHU216HW,2013-07-04 20:24:00,
2013-07-04 15:29:00,91.9,60.1,29.05,WSW,248,0.0,0.0,35,0.00,,,0.00,WUHU216HW,2013-07-04 20:29:00,
2013-07-04 15:34:00,91.9,60.1,29.05,WSW,248,0.0,0.0,35,0.00,,,0.00,WUHU216HW,2013-07-04 20:34:00,
2013-07-04 15:39:00,91.9,60.1,29.05,WSW,248,0.0,0.0,35,0.00,,,0.00,WUHU216HW,2013-07-04 20:39:00,
2013-07-04 16:02:00,92.1,59.5,29.05,WSW,248,0.0,0.0,34,0.00,,,0.00,WUHU216HW,2013-07-04 21:02:00,
2013-07-04 16:07:00,91.9,60.1,29.04,SSE,158,0.0,0.0,35,0.00,,,0.00,WUHU216HW,2013-07-04 21:07:00,
2013-07-04 16:12:00,91.9,60.1,29.04,SSE,158,0.0,0.0,35,0.00,,,0.00,WUHU216HW,2013-07-04 21:12:00,
2013-07-04 16:17:00,89.2,58.5,29.04,East,90,0.0,0.0,36,0.00,,,0.00,WUHU216HW,2013-07-04 21:17:00,
2013-07-04 16:22:00,88.1,58.4,29.04,WSW,248,0.0,0.0,37,0.00,,,0.00,WUHU216HW,2013-07-04 21:22:00,
2013-07-04 16:27:00,88.3,58.6,29.04,WSW,248,0.0,0.0,37,0.00,,,0.00,WUHU216HW,2013-07-04 21:27:00,
2013-07-04 16:32:00,88.8,58.2,29.04,WSW,248,0.0,0.0,36,0.00,,,0.00,WUHU216HW,2013-07-04 21:32:00,
2013-07-04 16:37:00,88.8,58.2,29.04,WSW,248,0.0,0.0,36,0.00,,,0.00,WUHU216HW,2013-07-04 21:37:00,
2013-07-04 16:42:00,88.8,58.2,29.04,WSW,248,0.0,0.0,36,0.00,,,0.00,WUHU216HW,2013-07-04 21:42:00,